Location: Buckenweiler
(49.0667°N, 10.2500°E)
Time: 18:51:25
(UTC+00:00)

NOAA 12 - Pass Details

Date: 18 April 2026
Orbit: 792 x 813 km, 98.6° (Epoch: 12 May)

Event Time Altitude Azimuth Distance (km) Brightness Sun altitude
Rises 02:50:12 0° 32° (NNE) 3,326 8.6 -14.3°
Reaches altitude 10° 02:54:12 10° 62° (ENE) 2,383 8.0 -13.7°
Maximum altitude 02:56:15 12° 85° (E) 2,223 7.3 -13.4°
Drops below altitude 10° 02:58:18 10° 109° (ESE) 2,371 7.1 -13.2°
Sets 03:02:14 0° 139° (SE) 3,289 7.4 -12.6°
